Regional Weather Roundup
Issued by NWS

Home | Current Version | Previous Version | Text Only | Print | Product List | Glossary Off
Versions: 1 2 3 4 5 6 7 8 9 10 11 12 13 14 15 16 17 18 19 20 21 22 23 24 25 26 27

000
ASUS45 KSLC 291110
RWRUT

UTAH REGIONAL WEATHER ROUNDUP
NATIONAL WEATHER SERVICE SALT LAKE CITY UT
500 AM MDT SUN MAY 29 2016

UTZ001>011-023>025-291200-

NORTHERN UTAH

CITY           SKY/WX    TMP DP  RH WIND       PRES   REMARKS
BRIGHAM CITY     N/A     48  43  81 CALM      30.08S
HILL AFB       MOCLDY    52  36  54 E17       30.08S
LOGAN          CLEAR     43  39  86 CALM      30.11S
OGDEN          PTCLDY    53  37  54 S7        30.07S
PROVO AIRPORT  CLEAR     52  41  66 CALM      30.09S
SALT LAKE CITY MOCLDY    59  41  51 S5        30.06R
VERNAL         CLOUDY    46  38  73 W6        30.15R
WENDOVER       CLEAR     57  41  54 CALM      30.05S
HEBER CITY     CLEAR     37  34  87 CALM      30.15R
WEST JORDAN    CLEAR     54  41  62 SW7       30.09R

$$

UTZ012>022-026-027-291200-

SOUTHERN/CENTRAL UTAH

CITY           SKY/WX    TMP DP  RH WIND       PRES   REMARKS
BLANDING       CLEAR     51  32  47 N10       30.18S
BRYCE CANYON   CLEAR     35  31  85 W6        30.22S WCI  30
CEDAR CITY     PTCLDY    44  34  67 W6        30.08S
DELTA          PTCLDY    46  39  76 CALM      30.08R
HANKSVILLE     CLEAR     46  32  57 CALM      30.10R
MILFORD        PTCLDY    49  36  61 CALM      30.08R
MOAB/CYNLANDS  CLEAR     54  34  46 SW3       30.06S
PRICE          CLEAR     44  33  65 NE5       30.14S
ST GEORGE      SUNNY     64  30  27 E8        29.95R
KANAB          CLEAR     54  36  50 NE6       30.08S

$$

REGIONAL REPORTS     COLORADO/ARIZONA

CITY           SKY/WX    TMP DP  RH WIND       PRES   REMARKS
CRAIG, CO      CLEAR     33  31  92 CALM      30.21R
GRAND JUNCTION CLEAR     50  36  58 SE10      30.12R
RIFLE          CLOUDY    41  33  73 S3        30.19R
MONTROSE       CLEAR     47  32  56 SE5       30.20R
CORTEZ         CLEAR     38  30  73 NE6       30.14R WCI  33
PAGE, AZ       NOT AVBL
GRAND CANYON   CLEAR     32  23  69 CALM      30.16R
KINGMAN        CLEAR     63  28  26 MISG      29.97R
FLAGSTAFF      CLEAR     34  21  59 CALM      30.17S

$$

REGIONAL REPORTS    NEVADA/IDAHO/WYOMING

CITY           SKY/WX    TMP DP  RH WIND       PRES   REMARKS
LAS VEGAS, NV  PTCLDY    73  26  17 S6        29.83R
ELY            CLEAR     42  38  85 S12       30.15S
ELKO           PTCLDY    49  42  77 E5        30.09R
POCATELLO, ID  CLEAR     37  34  89 CALM      30.10S
BURLEY         CLEAR     43  40  89 CALM      30.07S
EVANSTON, WY   CLOUDY    44  30  57 SE6       30.20S
ROCK SPRINGS   CLOUDY    44  34  67 CALM      30.19S
KEMMERER         N/A     34  32  93 NW8       30.22S WCI  27

$$




USA.gov is the U.S. government's official web portal to all federal, state and local government web resources and services.